FW2734 Weather Reports


Display with metric or nautical units.
time (UTC)temp
F
wind
direction
speed
MPH
gust
MPH
rain 1hr
in
rain 24hr
in
rain mn
in
humidity
%
barometer
mb
20260504174556 53 87 0.0 2.0 0.00 0.25 0.25 91 1012.2
20260504174051 53 42 0.0 3.0 0.00 0.25 0.25 91 1012.3
20260504173547 53 58 1.0 3.0 0.00 0.25 0.25 91 1012.4
20260504173058 53 51 0.0 3.0 0.01 0.25 0.25 91 1012.4
20260504172550 53 122 1.0 3.0 0.01 0.25 0.25 91 1012.4
20260504172050 53 144 0.0 2.0 0.01 0.25 0.25 91 1012.5
20260504171552 53 0 0.0 3.0 0.02 0.25 0.25 91 1012.5
20260504171052 53 169 0.0 3.0 0.02 0.25 0.25 91 1012.6
20260504170552 53 0 1.0 3.0 0.02 0.25 0.25 91 1012.7
20260504151051 54 134 2.0 5.0 0.03 0.19 0.19 89 1013.1
20260504150554 54 0 1.0 3.0 0.03 0.19 0.19 90 1013.0
20260504141051 55 153 1.0 4.0 0.01 0.16 0.16 87 1013.4
20260504140551 55 165 0.0 6.0 0.02 0.16 0.16 87 1013.4
20260504130553 56 193 2.0 4.0 0.00 0.14 0.14 84 1013.7
20260504120132 55 224 2.0 7.0 0.03 0.14 0.14 87 1013.8
20260504110554 54 184 2.0 5.0 0.10 0.11 0.11 90 1014.4
20260504100552 56 205 4.0 8.0 0.00 0.00 0.00 85 1014.1
20260504081554 57 0 0.0 2.0 0.00 0.00 0.00 80 1013.5
20260504081052 57 215 0.0 3.0 0.00 0.00 0.00 80 1013.6
20260504080552 57 0 0.0 3.0 0.00 0.00 0.00 81 1013.6
20260504050551 48 189 2.0 6.0 0.00 0.00 0.00 93 1013.0
20260504045553 46 0 0.0 3.0 0.00 0.00 0.00 92 1012.9
20260504045047 46 0 0.0 3.0 0.00 0.00 0.00 92 1012.9
20260504044554 46 0 1.0 3.0 0.00 0.00 0.00 92 1012.7
20260504044050 46 169 1.0 4.0 0.00 0.00 0.00 92 1012.7
20260504043550 46 155 1.0 5.0 0.00 0.00 0.00 92 1012.7
20260504043112 46 168 2.0 5.0 0.00 0.00 0.00 92 1012.7
20260504042550 45 175 3.0 5.0 0.00 0.00 0.00 92 1012.7
20260504042052 44 165 0.0 2.0 0.00 0.00 0.00 92 1012.7
20260504041549 44 0 0.0 0.0 0.00 0.00 0.00 92 1012.6
20260504041050 44 0 0.0 0.0 0.00 0.00 0.00 92 1012.6
20260504040553 44 0 0.0 0.0 0.00 0.00 0.00 92 1012.7
20260504040051 44 0 0.0 3.0 0.00 0.00 0.00 92 1012.7
20260504035553 45 0 0.0 4.0 0.00 0.00 0.00 91 1012.6
20260504035050 45 167 1.0 4.0 0.00 0.00 0.00 92 1012.7
20260504034554 45 171 2.0 3.0 0.00 0.00 0.00 92 1012.6
20260504034053 44 162 0.0 1.0 0.00 0.00 0.00 92 1012.7
20260504033550 44 0 0.0 2.0 0.00 0.00 0.00 91 1012.7
20260504033052 44 0 0.0 2.0 0.00 0.00 0.00 92 1012.7
20260504032550 44 0 0.0 0.0 0.00 0.00 0.00 91 1012.5
20260504032050 44 0 0.0 0.0 0.00 0.00 0.00 91 1012.5
20260504031556 43 0 0.0 0.0 0.00 0.00 0.00 91 1012.5
20260504031050 44 0 0.0 0.0 0.00 0.00 0.00 91 1012.6
20260504030550 44 0 0.0 0.0 0.00 0.00 0.00 91 1012.7
20260504030109 44 0 0.0 0.0 0.00 0.00 0.00 91 1012.7
20260504025550 44 0 0.0 0.0 0.00 0.00 0.00 91 1012.8
20260504025050 43 0 0.0 0.0 0.00 0.00 0.00 91 1012.8
20260504024553 43 0 0.0 0.0 0.00 0.00 0.00 91 1012.7
20260504024050 43 0 0.0 0.0 0.00 0.00 0.00 91 1012.9
20260504023550 43 0 0.0 0.0 0.00 0.00 0.00 91 1012.8
20260504023057 44 0 0.0 0.0 0.00 0.00 0.00 91 1012.9
20260504022551 44 0 0.0 0.0 0.00 0.00 0.00 91 1012.9
20260504022054 44 0 0.0 1.0 0.00 0.00 0.00 91 1012.9
20260504021552 44 0 0.0 2.0 0.00 0.00 0.00 91 1012.9
20260504021051 44 0 0.0 2.0 0.00 0.00 0.00 91 1012.9
20260504020552 44 0 0.0 3.0 0.00 0.00 0.00 90 1012.9
20260504020057 44 0 0.0 3.0 0.00 0.00 0.00 91 1013.0
20260504015549 45 163 1.0 2.0 0.00 0.00 0.00 91 1013.0
20260504015048 45 0 0.0 1.0 0.00 0.00 0.00 91 1013.1
20260504014554 45 0 0.0 0.0 0.00 0.00 0.00 90 1013.1
20260504014048 45 0 0.0 0.0 0.00 0.00 0.00 90 1013.0
20260504013554 45 0 0.0 0.0 0.00 0.00 0.00 91 1013.1
20260504013053 45 0 0.0 0.0 0.00 0.00 0.00 91 1013.1
20260504012548 45 0 0.0 0.0 0.00 0.00 0.00 90 1013.0
20260504012048 45 0 0.0 0.0 0.00 0.00 0.00 90 1013.0
20260504011553 45 0 0.0 0.0 0.00 0.00 0.00 90 1012.9
20260504011050 46 0 0.0 0.0 0.00 0.00 0.00 90 1013.0
20260504010550 46 0 0.0 2.0 0.00 0.00 0.00 90 1013.1
20260504010059 46 0 0.0 2.0 0.00 0.00 0.00 90 1013.1
20260504005550 47 0 0.0 2.0 0.00 0.00 0.00 90 1013.1
20260504005050 47 260 0.0 2.0 0.00 0.00 0.00 90 1013.1
20260504004551 47 269 0.0 2.0 0.00 0.00 0.00 90 1013.2
20260504004051 47 0 0.0 1.0 0.00 0.00 0.00 90 1013.1
20260504003550 46 0 0.0 4.0 0.00 0.00 0.00 90 1013.1
20260504003050 46 150 0.0 4.0 0.00 0.00 0.00 90 1013.0
20260504002550 46 172 2.0 4.0 0.00 0.00 0.00 90 1012.9
20260504002050 47 165 0.0 3.0 0.00 0.00 0.00 90 1012.9
20260504001558 47 0 0.0 1.0 0.00 0.00 0.00 90 1013.0
20260504001050 47 0 0.0 0.0 0.00 0.00 0.00 90 1013.1
20260504000549 47 0 0.0 0.0 0.00 0.00 0.00 89 1013.0
20260504000058 47 0 0.0 0.0 0.00 0.00 0.00 89 1013.0
20260503235549 47 0 0.0 0.0 0.00 0.00 0.00 89 1013.0
20260503235050 47 0 0.0 0.0 0.00 0.00 0.00 89 1013.0
20260503234553 47 0 0.0 0.0 0.00 0.00 0.00 89 1013.0
20260503234051 47 0 0.0 0.0 0.00 0.00 0.00 89 1013.0
20260503233550 47 0 0.0 0.0 0.00 0.00 0.00 89 1012.9
20260503233053 47 0 0.0 0.0 0.00 0.00 0.00 89 1012.9
20260503232555 47 0 0.0 0.0 0.00 0.00 0.00 89 1012.9
20260503232051 48 0 0.0 0.0 0.00 0.00 0.00 89 1013.0
20260503231555 48 0 0.0 0.0 0.00 0.00 0.00 89 1012.9
20260503231052 48 0 0.0 0.0 0.00 0.00 0.00 89 1012.9
20260503230552 48 0 0.0 1.0 0.00 0.00 0.00 89 1013.0
20260503230110 48 0 0.0 1.0 0.00 0.00 0.00 89 1013.1
20260503225552 48 0 0.0 2.0 0.00 0.00 0.00 89 1013.2
20260503225052 48 0 0.0 2.0 0.00 0.00 0.00 89 1013.3
20260503224607 48 0 1.0 2.0 0.00 0.00 0.00 89 1013.3
20260503224052 48 179 0.0 0.0 0.00 0.00 0.00 89 1013.2
20260503223552 48 0 0.0 0.0 0.00 0.00 0.00 88 1013.2
20260503223113 48 0 0.0 0.0 0.00 0.00 0.00 88 1013.2
20260503222551 48 0 0.0 0.0 0.00 0.00 0.00 88 1013.2
20260503222051 48 0 0.0 0.0 0.00 0.00 0.00 88 1013.2
20260503221556 48 0 0.0 0.0 0.00 0.00 0.00 88 1013.1
20260503221052 48 0 0.0 1.0 0.00 0.00 0.00 88 1013.0
20260503220553 49 0 0.0 1.0 0.00 0.00 0.00 88 1013.1
20260503220057 49 0 0.0 1.0 0.00 0.00 0.00 88 1013.1
20260503215551 49 0 0.0 1.0 0.00 0.00 0.00 88 1013.1
20260503215052 49 160 0.0 3.0 0.00 0.00 0.00 88 1013.0
20260503214600 49 173 0.0 3.0 0.00 0.00 0.00 88 1012.9
20260503214052 49 191 1.0 3.0 0.00 0.00 0.00 87 1013.1
20260503213552 49 165 0.0 2.0 0.00 0.00 0.00 87 1013.0
20260503213056 50 204 0.0 2.0 0.00 0.00 0.00 87 1013.0
20260503212552 50 0 1.0 2.0 0.00 0.00 0.00 87 1013.1
20260503212052 50 218 1.0 2.0 0.00 0.00 0.00 87 1013.0
20260503211608 51 243 0.0 2.0 0.00 0.00 0.00 86 1013.0
20260503211052 51 0 0.0 1.0 0.00 0.00 0.00 86 1013.1
20260503210553 51 0 0.0 2.0 0.00 0.00 0.00 86 1013.0
20260503210056 52 0 0.0 3.0 0.00 0.00 0.00 86 1013.1
20260503205552 52 240 1.0 5.0 0.00 0.00 0.00 85 1013.3
20260503205053 53 244 1.0 5.0 0.00 0.00 0.00 86 1013.3
20260503204558 53 245 2.0 4.0 0.00 0.00 0.00 86 1013.2
20260503204051 53 212 1.0 4.0 0.00 0.00 0.00 86 1013.0
20260503203552 53 252 0.0 5.0 0.00 0.00 0.00 86 1013.1
20260503203058 53 227 1.0 5.0 0.00 0.00 0.00 86 1013.0
20260503202551 53 173 1.0 5.0 0.00 0.00 0.00 86 1013.0
20260503202051 53 0 1.0 5.0 0.00 0.00 0.00 86 1013.0
20260503201552 54 229 2.0 7.0 0.00 0.00 0.00 85 1013.0
20260503201052 54 214 2.0 7.0 0.00 0.00 0.00 85 1013.0
20260503200550 54 237 1.0 5.0 0.00 0.00 0.00 85 1013.0
20260503200054 54 187 2.0 5.0 0.00 0.00 0.00 85 1013.0
20260503195548 54 190 1.0 5.0 0.00 0.00 0.00 85 1013.1
20260503195050 54 186 2.0 5.0 0.00 0.00 0.00 84 1013.1
20260503194619 54 198 1.0 4.0 0.00 0.00 0.00 84 1013.2
20260503194053 55 198 1.0 4.0 0.00 0.00 0.00 84 1013.2
20260503193550 55 196 1.0 5.0 0.00 0.00 0.00 84 1013.2
20260503193053 55 217 2.0 5.0 0.00 0.00 0.00 84 1013.3
20260503192548 54 195 3.0 5.0 0.00 0.00 0.00 84 1013.2
20260503192053 54 233 1.0 4.0 0.00 0.00 0.00 84 1013.1
20260503191600 55 242 2.0 4.0 0.00 0.00 0.00 83 1013.2
20260503191051 55 243 1.0 5.0 0.00 0.00 0.00 82 1013.2
20260503190550 55 244 1.0 5.0 0.00 0.00 0.00 82 1013.2
20260503190100 56 225 2.0 5.0 0.00 0.00 0.00 82 1013.1
20260503185549 56 219 3.0 5.0 0.00 0.00 0.00 82 1013.0
20260503185052 56 212 2.0 8.0 0.00 0.00 0.00 81 1013.1
20260503184557 56 248 3.0 9.0 0.00 0.00 0.00 81 1013.0
20260503184048 56 191 1.0 9.0 0.00 0.00 0.00 81 1012.9
20260503183549 57 216 3.0 9.0 0.00 0.00 0.00 81 1012.9
20260503183104 57 181 4.0 9.0 0.00 0.00 0.00 81 1012.9
20260503182548 57 208 3.0 8.0 0.00 0.00 0.00 81 1012.9
20260503182049 57 235 2.0 8.0 0.00 0.00 0.00 81 1012.8
20260503181605 57 238 3.0 9.0 0.00 0.00 0.00 82 1012.9
20260503181050 57 199 4.0 11.0 0.00 0.00 0.00 81 1012.8
20260503180548 57 165 4.0 11.0 0.00 0.00 0.00 82 1012.7
20260503180056 57 231 5.0 10.0 0.00 0.00 0.00 82 1012.7
20260503175549 57 206 2.0 10.0 0.00 0.00 0.00 82 1012.5
20260503175048 57 236 3.0 10.0 0.00 0.00 0.00 82 1012.5